Showing default

GONETS M 09 (M19), 40062

Orbit data source: Space-Track

GONETS M 09 (M19), 40062 is a payload satellite owned by Gonets (CIS) in LEO that was launched on Thu, 03 Jul 2014 UTC via an ROKOT launch vehicle from the Plesetsk Missile And Space Complex (PKMTR). Payload-class satellites include a variety of spacecraft equipped with specific instruments for various scientific and technological missions. These include communications satellites like Starlink; space stations such as the ISS; scientific satellites like the Hubble; Earth observation satellites from companies like Planet Labs, Umbra, and HawkEye 360; GPS; miniature CubeSats for education and research; and military/defense satellites.

Loading next visibility...
Identifier
40062, 2014-036B
Orbit
LEO
Country
Flag of CISCIS
Related business
Manufacturer
Resehetnev ISS
Mission
Operational Civil Communications
Bus & Motor
STRELA-3M, Unknown motor
Mass
280 kg wet, 280 kg dry
Launch date (UTC)
2014-07-03 (12 years ago)
Launch vehicle
ROKOT
Launch site
Plesetsk Missile And Space Complex (PKMTR)
Object type
Payload
Rocket body
Debris
Shape & HBR
Cyl + 1 Ant, 3.5 m
Radar Cross Section
1.798 m², Large (>1 m²)

Expand to show TLE details & history
Last TLE update: 22 hours ago

TLE from 22 hours ago
0 GONETS M 09 (M19)
1 40062U 14036B   26172.51529200 -.00000008  00000-0 -13233-3 0  9993
2 40062  82.5115 304.9712 0024010 144.6220 215.6458 12.42950885542992
Epoch: 2026-06-21T12:22Z
TLE epoch observation values (Epoch: 2026-06-21T12:22:01.228Z)
Latitude
-0.00007°
Longitude
-150.24838°
Altitude
1,512.197 km
Speed
7.102 km/s
True Right ascension
20h 19m 53s
True Declination
0° 00' 00"
Sunlit
Object was in full shadow at epoch
Visualization orbit readout
Latitude
Unknown
Longitude
Unknown
Altitude
Unknown
Speed
Unknown
Apparent Right ascension
Unknown
Apparent Declination
Unknown
Sunlit
N/A
Visualization observer readout
Local Sidereal Time
21:44:02
Azimuth
Unknown
Elevation
Unknown
Doppler factor
Unknown
Orbital elements
Apogee altitude
1,510.364 km
Perigee altitude
1,472.575 km
Semi-major axis
7,869.607 km
Eccentricity
0.0024
Inclination
82.5115°
RAAN
304.9712°
Arg. of periapsis
144.622°
True anomaly
215.48585°
Mean anomaly
215.6458°
Eccentric anomaly
215.56579°
Mean motion
3.10895 °/min
Orbital period
115.79 mins
BSTAR
-0.00013233
Loading maneuver chart data...
Computing Atmospheric mass density...
Loading historical data...
Loading historical data...
Loading historical data...
Loading historical data...
Loading historical data...
Loading historical data...
Loading historical data...
Other satellites on launch #36 in the year 2014 (2014-07-03 UTC)

Documentation

Showing up to 5 results
|